www.pogodaiklimat.ru

Погода и климат >> Архив погоды >> Пакистан >> Паттан


ПОГОДА в Паттане

  • Прогноз погоды в Паттане
  • Монитор погоды в Паттане

АРХИВ ПОГОДЫ в Паттане

Время (UTC), дата Ветер
(напр.,м/с)
 
Видим.   Явления Облачность Т
(С)
Тd
(С)
f
(%)
Тe
(С)
Тes
(С)
Комфортность P
(гПа)
Po
(гПа)
Тmin
(С)
Tmax
(С)
R
(мм)
R24
(мм)
S
(см)
12 18.06 штиль 0 10 км 5/3 1200 м
[Sc As op]
+32.5 +13.5 32 +34 +37 очень
жарко
998.3 917.8 +37.0
00 19.06 штиль 0 4000 м ясно +24.5 +14.9 55 +27 +27 жарко 1003.2 920.2
03 19.06 штиль 0 10 км ясно +27.0 +15.2 48 +30 +40 душно 1003.4 921.1 +22.0
06 19.06 штиль 0 10 км 1/1 1200 м
[Sc]
+33.0 +15.3 35 +35 +59 опасность
солнечного
удара
1003.4 922.6
12 19.06 штиль 0 10 км 10/5 1200 м
[Sc As op]
+32.5 +17.5 41 +36 +37 очень
душно
999.1 918.5 +36.0
00 20.06 З 1 4000 м 3/3 1200 м
[Sc]
+25.0 +13.6 49 +27 +27 жарко 1005.2 922.2
03 20.06 штиль 0 10 км 3/0
[As op]
+27.0 +14.2 45 +29 +37 жарко 1006.1 923.5 +23.0
06 20.06 штиль 0 10 км 3/0
[As op]
+32.0 +15.9 38 +35 +55 опасность
солнечного
удара
1002.3 921.3
09 20.06 штиль 0 10 км 3/0
[As op]
+32.0 +15.9 38 +35 +53 опасность
солнечного
удара
1002.3 921.3
12 20.06 СВ 3 10 км 10/5 1200 м
[Sc As op]
+32.5 +8.2 22 +31 +32 жарко 1003.1 922.2 +33.0
00 21.06 штиль 0 4000 м ясно +25.0 +14.5 52 +28 +28 жарко 1004.6 921.6
03 21.06 штиль 0 10 км ясно +27.5 +11.8 38 +29 +39 жарко 1004.7 922.4 +21.0
06 21.06 штиль 0 10 км ясно +31.5 +13.1 33 +33 +60 опасность
солнечного
удара
1005.7 924.3
09 21.06 СВ 3 10 км 10/10 1200 м
[]
+31.5 +10.0 27 +31 +31 жарко 1003.1 922.0
12 21.06 штиль 0 10 км 10/10 1200 м
[]
+30.0 +12.0 33 +31 +31 жарко 1003.3 921.8 +32.5
00 22.06 штиль 0 4000 м ясно +24.5 +13.4 50 +27 +27 жарко 1005.0 921.9
03 22.06 штиль 0 10 км ясно +26.0 +12.9 44 +28 +38 жарко 1005.3 922.5 +20.0
09 22.06 СВ 3 10 км 5/5 1200 м
[Sc]
+37.0 +8.6 18 +35 +43 очень
жарко
999.7 920.2
12 22.06 СВ 8 10 км 10/10 1200 м
[]
+32.0 +7.8 22 +31 +31 жарко 1003.6 922.5 +38.0
15 22.06 0 н/о
00 23.06 штиль 0 4000 м ясно +25.0 +12.6 46 +27 +27 жарко 1006.0 922.9
03 23.06 штиль 0 10 км ясно +27.0 +12.1 40 +28 +38 жарко 1005.9 923.4 +19.5
06 23.06 штиль 0 10 км ясно +30.5 +12.8 34 +32 +58 опасность
солнечного
удара
1004.3 922.8
09 23.06 штиль 0 10 км ясно +35.5 +13.6 27 +36 +60 опасность
солнечного
удара
1005.0 924.7
12 23.06 штиль 0 10 км 10/5 1200 м
[Sc As op]
+34.0 +11.2 25 +34 +34 очень
жарко
999.3 919.1 +38.0
00 24.06 штиль 0 4000 м 10/10 1200 м
[]
+26.0 +13.9 47 +28 +28 жарко 1002.8 920.2
03 24.06 штиль 0 10 км ясно +27.5 +12.8 40 +29 +39 жарко 1002.5 920.4 +20.5
06 24.06 штиль 0 4000 м в посл. час дождь 10/10 1200 м
[]
+22.0 +16.5 71 +26 +26 душно 1004.1 920.4 3
09 24.06 штиль 0 4000 м {дождь} 10/5 1200 м
[Sc As op]
+21.0 +16.3 75 +24 +27 комфорт 1004.1 920.1 4
12 24.06 СВ 3 10 км ясно +21.5 +13.8 62 +24 +28 комфорт 1000.7 917.1 +27.0
00 25.06 СВ 3 4000 м 5/5 1200 м
[Sc As op]
+22.0 +9.5 45 +24 +24 комфорт 1008.1 924.0
03 25.06 штиль 0 10 км ясно +24.5 +9.7 39 +25 +35 комфорт 1007.7 924.3 +18.0
06 25.06 СВ 3 10 км ясно +28.5 +14.2 42 +31 +49 душно 1008.9 926.5
09 25.06 СВ 2 10 км ясно +34.0 +14.6 31 +35 +53 опасность
солнечного
удара
1002.6 922.1

 

Местоположение метеостанции Паттан (Пакистан): широта 35.10 долгота 73.00 высота над уровнем моря 752 м.

В архиве по умолчанию представлена погода в Паттане за последнюю неделю. Архивные данные за месяц целиком и за предыдущие месяцы, начиная с января 2011 года, Вы можете получить, выбрав интересующий диапазон дат из раскрывающегося списка и нажав кнопку "Ввод!".


*Определитесь, кто Вы:
робот инопланетянин человек

Внимание! Время в таблицах - всемирное. Для получения местного времени необходимо прибавить поправку, которая равна 5 ч.

Смотрите также архив погоды в соседних городах и на ближайших метеорологических станциях:

Погода в Малам Джабба (Пакистан) (40 км)
Погода в Сайду-Шарифе (Пакистан) (72 км)
Погода в Каламе (Пакистан) (81 км)
Погода в Балакоре (Пакистан) (86 км)
Погода в Бабусаре (Пакистан) (101 км)
Погода в Какуле (Пакистан) (105 км)
Погода в Дире (Пакистан) (105 км)
Погода в Чиласе (Пакистан) (106 км)
Погода в Тимергаре (Пакистан) (112 км)
Погода в Дроше (Пакистан) (122 км)

Пояснения к столбцам:

Ветер - указаны скорость ветра в м/с - средняя за 10 мин, порывы в срок и между сроками (в фигурных скобках) и направление, откуда дует ветер: С - северный, СВ - северо-восточный, В - восточный, ЮВ - юго-восточный, Ю - южный, ЮЗ - юго-западный, З - западный, СЗ - северо-западный.
Видимость - горизонтальная дальность видимости в метрах или километрах. При видимости от 1 до 10 км при отсутствии осадков обычно наблюдается дымка, при ухудшении видимости до 1 км и менее - туман. В сухую погоду видимость может ухудшаться дымом, пылью или мглою.
Явления - указаны атмосферные явления, наблюдавшиеся в срок или в последний час перед сроком; фигурными скобками обозначены явления, наблюдавшиеся между сроками (за 1-3 часа до срока); квадратными скобками обозначены град или гололедные отложения с указанием их диаметра в мм.
Облачность - указаны через наклонную черту общая и нижняя облачность в баллах и высота нижней границы облаков в метрах; квадратными скобками обозначены формы облаков: Ci - перистые, Cs - перисто-слоистые, Cc - перисто-кучевые, Ac - высококучевые, As - высокослоистые, Sc - слоисто-кучевые, Ns - слоисто-дождевые, Cu - кучевые, Cb - кучево-дождевые. Подробнее классификацию облаков см. в Атласе облаков (PDF).
T - Температура воздуха - температура, измеренная на высоте 2 м над землей.
Td - Температура точки росы - температура, при понижении до которой содержащийся в воздухе водяной пар достигнет насыщения.
f - Относительная влажность воздуха - влажноcть воздуха, измеренная на высоте 2 м над землей.
Te - Эффективная температура - температура, которую ощущает одетый по сезону человек в тени. Характеристика душности погоды. При расчете учитывается влияние влажности воздуха и скорости ветра на теплоощущения человека.
Tes - Эффективная температура на солнце - температура, которую ощущает человек, с поправкой на солнечный нагрев. Характеристика знойности погоды. Зависит от высоты солнца над горизонтом, облачности и скорости ветра. Ночью, в пасмурную погоду, а также при ветре 12 м/с и более поправка равна нулю.
P - Атмосферное давление - приведенное к уровню моря атмосферное давление.
Po - Атмосферное давление - измеренное на уровне метеостанции атмосферное давление.
Tmin - Минимальная температура - минимум температуры воздуха на высоте 2 м над землей.
Tmax - Максимальная температура - максимум температуры воздуха на высоте 2 м над землей.
R - Количество осадков - Количество выпавших осадков за период времени, мм. При наведении курсора мыши на число - период времени, за который выпало указанное количество осадков.
R24 - Количество осадков - Количество выпавших осадков за 24 часа, мм.
S - Снежный покров - Высота снежного покрова, см. При наведении курсора мыши на число - состояние снежного покрова и степень покрытия местности в баллах.